Lapse_Rate
7.0 7.5 7.8 7.7 7.5 7.9 8.0 8.3 8.7 8.4 7.9 7.7 7.5 7.8 8.1 7.9 7.8 7.8 7.4 7.3 7.4 7.5
6.8 6.8 7.1 7.5 7.5 7.8 8.2 8.4 8.6 8.4 8.0 7.9 7.8 7.5 7.8 8.0 7.7 7.8 7.8 7.5 7.5 7.4
6.5 6.7 6.8 7.4 7.5 7.7 8.1 8.4 8.4 8.3 8.0 8.0 8.0 7.8 7.5 7.9 7.9 7.6 7.8 7.7 7.5 7.4
6.5 6.1 6.8 7.3 7.6 7.6 8.0 8.4 8.5 8.3 8.0 7.9 8.1 8.1 7.8 7.7 8.0 7.8 7.7 7.8 7.7 7.7
5.3 6.4 6.7 7.3 7.5 7.5 7.8 8.2 8.4 8.4 7.8 7.7 7.8 7.8 7.9 7.9 7.8 7.9 7.8 7.9 7.9 7.8
6.9 4.8 6.6 7.1 7.6 7.2 7.1 7.6 8.3 8.3 8.1 7.6 7.4 7.7 7.7 7.8 7.8 7.8 7.9 7.8 7.8 7.9
6.4 5.8 5.6 6.4 7.2 7.2 7.0 6.9 7.4 8.1 8.2 7.8 7.6 7.4 7.7 7.7 7.8 7.8 7.8 7.8 7.8 7.8
6.7 6.8 6.5 7.0 6.7 6.5 6.7 6.7 6.8 7.5 7.8 7.8 7.7 7.4 7.4 7.6 7.6 7.7 7.7 7.6 7.6 7.7
7.0 7.2 6.1 7.0 7.3 7.0 6.3 6.3 6.8 7.0 7.6 8.0 7.8 7.8 7.6 7.6 7.5 7.6 7.6 7.6 7.7 7.7
6.7 6.9 7.0 6.9 7.1 7.3 7.3 7.0 6.5 6.2 6.8 7.6 8.1 8.0 8.0 7.8 7.7 7.8 7.9 7.9 7.8 7.8
6.6 6.2 6.4 6.8 7.1 7.1 7.2 6.9 7.0 6.7 6.7 6.3 7.9 8.0 8.2 8.1 8.0 8.0 8.0 8.0 8.1 7.9
6.9 6.5 6.1 6.2 6.8 7.0 7.1 7.0 7.1 6.9 6.4 6.5 7.2 7.8 8.2 8.4 8.4 8.2 8.3 8.3 8.4 8.2
6.5 6.9 6.3 6.1 6.3 6.4 6.5 6.6 6.9 6.8 6.6 6.2 6.4 7.2 8.1 8.1 8.3 8.5 8.5 8.5 8.3 8.4
6.1 5.8 6.1 6.1 5.9 6.4 6.3 6.3 6.5 6.8 6.6 6.4 6.5 6.5 5.8 7.0 7.8 8.1 8.1 8.2 8.4 8.4
Wind_Speed
25 18 18 19 16 16 15 15 20 18 18 19 18 13 14 11 12 15 14 16 10 8
25 25 23 24 19 16 19 16 17 21 19 19 18 18 16 13 14 15 16 16 15 12
24 25 23 21 21 21 20 19 18 19 20 18 19 18 17 16 15 15 13 13 16 15
22 21 21 19 22 17 19 21 20 18 19 20 20 20 19 19 18 17 17 16 17 18
11 20 16 18 19 21 19 19 21 20 21 19 21 20 21 22 20 19 19 19 17 19
5 17 21 20 21 16 16 19 19 19 22 22 21 22 22 22 22 21 21 21 20 20
11 9 13 21 19 20 19 16 19 21 21 22 21 23 22 22 21 22 20 20 20 20
16 14 14 13 15 16 16 19 16 18 18 19 18 16 22 21 22 22 22 20 19 20
16 16 14 15 16 13 16 18 18 17 19 19 15 20 23 23 20 22 21 20 19 19
18 19 17 16 15 14 13 12 18 19 18 19 21 21 23 25 19 19 20 20 17 16
17 18 18 17 16 15 13 12 13 16 18 20 18 21 23 24 23 19 19 19 19 17
15 15 17 17 16 15 13 12 12 12 14 18 21 19 19 17 18 21 19 16 17 18
15 15 14 15 15 14 13 12 10 12 11 14 14 18 22 20 13 17 15 15 16 19
14 15 15 14 12 14 14 13 12 11 10 12 10 10 8 17 17 13 12 13 10 9
Wind_Direction
197 197 202 195 195 202 199 198 199 197 196 200 199 194 199 198 200 202 208 208 205 210
203 200 200 201 195 198 200 199 194 198 199 199 199 197 197 205 205 201 207 213 216 215
208 207 203 201 199 202 199 197 190 194 198 201 203 200 196 206 207 207 208 210 212 220
288 216 211 206 205 200 192 196 195 193 195 202 203 203 203 205 206 207 210 210 213 216
296 255 216 215 210 208 191 191 197 197 204 204 207 205 204 207 206 208 209 211 211 218
238 281 256 223 216 201 194 192 193 192 199 205 206 208 208 208 208 209 213 213 212 215
353 322 293 235 213 214 206 198 194 201 200 204 205 209 209 209 209 213 216 215 217 215
345 334 335 347 237 217 218 214 204 204 205 207 208 208 210 209 211 211 216 215 216 219
353 359 346 1 351 338 227 218 213 208 206 207 209 204 203 207 211 213 214 217 218 219
0 353 360 359 355 342 342 303 232 225 217 215 214 201 198 202 210 211 214 217 217 219
359 358 354 358 358 339 343 333 325 243 225 220 219 207 201 198 209 214 214 214 215 216
354 353 355 356 351 341 339 336 331 319 280 229 226 205 198 187 211 220 220 212 210 211
349 349 350 351 350 346 345 328 338 327 319 321 275 219 193 187 201 215 221 221 218 207
349 344 352 345 354 348 350 337 348 344 339 328 4 22 358 219 210 210 210 216 216 215